• In Netherlands
  • List of Countries
  • For 7 days
  • Water Temperature
  • Satellite Maps
  • Weather Map
  • Weather Widgets
  • user-avatar
    Login

    Hourly Weather Nesebyr

    Today, 28 June, Wednesday

    Time Temperature Precipitation Wind Pressure Humidity
    00:00 +22°C° 0 mm 1 mps 757 mmHg 85%
    01:00 +21°C° 0 mm 1 mps 757 mmHg 86%
    02:00 +21°C° 0 mm 1 mps 756 mmHg 87%
    03:00 +21°C° 0 mm 1 mps 756 mmHg 88%
    04:00 +21°C° 0 mm 1 mps 756 mmHg 88%
    05:00 +21°C° 0 mm 1 mps 757 mmHg 89%
    06:00 +23°C° 0 mm 1 mps 757 mmHg 81%
    07:00 +25°C° 0 mm 1 mps 756 mmHg 74%
    08:00 +28°C° 0 mm 1 mps 756 mmHg 66%
    09:00 +29°C° 0.1 mm 1 mps 756 mmHg 61%
    10:00 +30°C° 0.1 mm 1 mps 756 mmHg 56%
    11:00 +32°C° 0.1 mm 1 mps 756 mmHg 51%
    12:00 +32°C° 0.1 mm 2 mps 756 mmHg 49%
    13:00 +34°C° 0.1 mm 2 mps 756 mmHg 47%
    14:00 +35°C° 0.1 mm 3 mps 756 mmHg 45%
    15:00 +34°C° 0 mm 3 mps 755 mmHg 48%
    16:00 +33°C° 0 mm 3 mps 755 mmHg 51%
    17:00 +33°C° 0 mm 4 mps 755 mmHg 54%
    18:00 +30°C° 0 mm 4 mps 755 mmHg 64%
    19:00 +27°C° 0 mm 3 mps 755 mmHg 73%
    20:00 +25°C° 0 mm 3 mps 755 mmHg 82%
    21:00 +25°C° 0 mm 3 mps 755 mmHg 84%
    22:00 +24°C° 0 mm 3 mps 755 mmHg 86%
    23:00 +23°C° 0 mm 2 mps 756 mmHg 88%

    Tomorrow, 29 June, Thursday

    Time Temperature Precipitation Wind Pressure Humidity
    00:00 +23°C° 0 mm 2 mps 755 mmHg 88%
    01:00 +23°C° 0 mm 2 mps 755 mmHg 87%
    02:00 +21°C° 0 mm 2 mps 755 mmHg 86%
    03:00 +22°C° 0 mm 1 mps 755 mmHg 86%
    04:00 +22°C° 0 mm 1 mps 755 mmHg 86%
    05:00 +22°C° 0 mm 1 mps 755 mmHg 85%
    06:00 +24°C° 0 mm 1 mps 756 mmHg 77%
    07:00 +27°C° 0 mm 2 mps 756 mmHg 68%
    08:00 +29°C° 0 mm 2 mps 756 mmHg 59%
    09:00 +31°C° 0 mm 2 mps 756 mmHg 53%
    10:00 +34°C° 0 mm 3 mps 756 mmHg 47%
    11:00 +36°C° 0 mm 3 mps 756 mmHg 42%
    12:00 +37°C° 0 mm 3 mps 756 mmHg 39%
    13:00 +38°C° 0 mm 4 mps 755 mmHg 36%
    14:00 +40°C° 0 mm 4 mps 755 mmHg 34%
    15:00 +40°C° 0 mm 4 mps 755 mmHg 35%
    16:00 +38°C° 0 mm 4 mps 754 mmHg 36%
    17:00 +39°C° 0 mm 5 mps 754 mmHg 37%
    18:00 +36°C° 0 mm 4 mps 754 mmHg 43%
    19:00 +33°C° 0 mm 4 mps 754 mmHg 49%
    20:00 +30°C° 0 mm 4 mps 754 mmHg 55%
    21:00 +29°C° 0 mm 4 mps 754 mmHg 56%
    22:00 +28°C° 0 mm 4 mps 755 mmHg 56%
    23:00 +27°C° 0 mm 4 mps 755 mmHg 57%

    Day after tomorrow, 30 June, Friday

    Time Temperature Precipitation Wind Pressure Humidity
    00:00 +27°C° 0 mm 3 mps 755 mmHg 57%
    01:00 +27°C° 0 mm 3 mps 755 mmHg 56%
    02:00 +26°C° 0 mm 3 mps 755 mmHg 56%
    03:00 +26°C° 0 mm 3 mps 755 mmHg 57%
    04:00 +25°C° 0 mm 2 mps 755 mmHg 59%
    05:00 +25°C° 0 mm 2 mps 755 mmHg 60%
    06:00 +28°C° 0 mm 2 mps 756 mmHg 53%
    07:00 +30°C° 0 mm 2 mps 756 mmHg 45%
    08:00 +34°C° 0 mm 2 mps 757 mmHg 38%
    09:00 +36°C° 0 mm 2 mps 757 mmHg 34%
    10:00 +37°C° 0 mm 2 mps 757 mmHg 31%
    11:00 +39°C° 0 mm 1 mps 757 mmHg 27%
    12:00 +40°C° 0 mm 2 mps 757 mmHg 26%
    13:00 +40°C° 0 mm 2 mps 756 mmHg 24%
    14:00 +41°C° 0 mm 2 mps 756 mmHg 23%
    15:00 +41°C° 0 mm 2 mps 756 mmHg 23%
    16:00 +41°C° 0 mm 2 mps 756 mmHg 24%
    17:00 +40°C° 0 mm 3 mps 756 mmHg 24%
    18:00 +37°C° 0 mm 3 mps 756 mmHg 30%
    19:00 +34°C° 0 mm 3 mps 756 mmHg 37%
    20:00 +30°C° 0 mm 2 mps 756 mmHg 43%
    21:00 +29°C° 0 mm 2 mps 756 mmHg 46%
    22:00 +27°C° 0 mm 2 mps 757 mmHg 49%
    23:00 +26°C° 0 mm 2 mps 757 mmHg 52%

    1 July, Saturday

    Time Temperature Precipitation Wind Pressure Humidity
    00:00 +26°C° 0 mm 1 mps 757 mmHg 54%
    01:00 +25°C° 0 mm 1 mps 757 mmHg 57%
    02:00 +25°C° 0 mm 1 mps 757 mmHg 59%
    03:00 +24°C° 0 mm 1 mps 757 mmHg 60%
    04:00 +24°C° 0 mm 1 mps 757 mmHg 60%
    05:00 +24°C° 0 mm 1 mps 757 mmHg 60%
    06:00 +27°C° 0 mm 1 mps 757 mmHg 51%
    07:00 +31°C° 0 mm 1 mps 757 mmHg 42%
    08:00 +34°C° 0 mm 1 mps 757 mmHg 33%
    09:00 +37°C° 0 mm 2 mps 756 mmHg 31%
    10:00 +38°C° 0 mm 3 mps 756 mmHg 28%
    11:00 +41°C° 0 mm 4 mps 756 mmHg 25%
    12:00 +41°C° 0 mm 4 mps 756 mmHg 25%
    13:00 +42°C° 0 mm 4 mps 755 mmHg 24%
    14:00 +42°C° 0 mm 4 mps 755 mmHg 24%
    15:00 +41°C° 0 mm 4 mps 754 mmHg 26%
    16:00 +40°C° 0 mm 5 mps 754 mmHg 29%
    17:00 +39°C° 0 mm 5 mps 754 mmHg 31%
    18:00 +35°C° 0 mm 4 mps 754 mmHg 39%
    19:00 +32°C° 0 mm 4 mps 753 mmHg 48%
    20:00 +28°C° 0 mm 3 mps 753 mmHg 56%
    21:00 +27°C° 0 mm 3 mps 753 mmHg 59%
    22:00 +26°C° 0 mm 3 mps 753 mmHg 61%
    23:00 +25°C° 0 mm 3 mps 753 mmHg 64%

    2 July, Sunday

    Time Temperature Precipitation Wind Pressure Humidity
    00:00 +24°C° 0 mm 2 mps 753 mmHg 66%
    01:00 +23°C° 0 mm 2 mps 753 mmHg 68%
    02:00 +22°C° 0 mm 1 mps 752 mmHg 71%
    03:00 +22°C° 0 mm 1 mps 752 mmHg 70%
    04:00 +22°C° 0 mm 1 mps 752 mmHg 69%
    05:00 +22°C° 0 mm 1 mps 752 mmHg 68%
    06:00 +25°C° 0 mm 1 mps 752 mmHg 60%
    07:00 +28°C° 0 mm 1 mps 752 mmHg 51%
    08:00 +31°C° 0 mm 2 mps 752 mmHg 42%
    09:00 +34°C° 0 mm 2 mps 752 mmHg 40%
    10:00 +35°C° 0 mm 3 mps 752 mmHg 38%
    11:00 +36°C° 0 mm 4 mps 751 mmHg 37%
    12:00 +37°C° 0 mm 4 mps 751 mmHg 37%
    13:00 +37°C° 0 mm 4 mps 750 mmHg 37%
    14:00 +37°C° 0 mm 4 mps 750 mmHg 37%
    15:00 +37°C° 0 mm 4 mps 750 mmHg 40%
    16:00 +36°C° 0 mm 4 mps 749 mmHg 43%
    17:00 +35°C° 0 mm 4 mps 749 mmHg 45%
    18:00 +32°C° 0 mm 4 mps 749 mmHg 56%
    19:00 +29°C° 0 mm 3 mps 749 mmHg 66%
    20:00 +26°C° 0 mm 3 mps 749 mmHg 77%
    21:00 +26°C° 0.1 mm 4 mps 749 mmHg 77%
    22:00 +25°C° 0.1 mm 5 mps 750 mmHg 77%
    23:00 +24°C° 0.1 mm 7 mps 751 mmHg 77%

    3 July, Monday

    Time Temperature Precipitation Wind Pressure Humidity
    00:00 +23°C° 0.2 mm 7 mps 751 mmHg 78%
    01:00 +23°C° 0.2 mm 8 mps 751 mmHg 79%
    02:00 +22°C° 0.2 mm 8 mps 751 mmHg 80%
    03:00 +22°C° 0.1 mm 8 mps 751 mmHg 82%
    04:00 +21°C° 0.1 mm 7 mps 751 mmHg 83%
    05:00 +21°C° 0.1 mm 7 mps 751 mmHg 85%
    06:00 +21°C° 0.7 mm 7 mps 751 mmHg 85%
    07:00 +22°C° 0.7 mm 7 mps 752 mmHg 84%
    08:00 +22°C° 0.7 mm 7 mps 752 mmHg 84%
    09:00 +21°C° 2.3 mm 7 mps 752 mmHg 86%
    10:00 +20°C° 2.3 mm 7 mps 753 mmHg 87%
    11:00 +18°C° 2.3 mm 7 mps 753 mmHg 88%
    12:00 +20°C° 1.1 mm 7 mps 753 mmHg 85%
    13:00 +21°C° 1.1 mm 7 mps 753 mmHg 83%
    14:00 +21°C° 1.1 mm 7 mps 754 mmHg 80%
    15:00 +21°C° 0.2 mm 7 mps 754 mmHg 81%
    16:00 +20°C° 0.2 mm 7 mps 754 mmHg 83%
    17:00 +20°C° 0.2 mm 6 mps 754 mmHg 84%
    18:00 +20°C° 0.2 mm 6 mps 755 mmHg 85%
    19:00 +20°C° 0.2 mm 6 mps 755 mmHg 86%
    20:00 +19°C° 0.2 mm 6 mps 755 mmHg 87%
    21:00 +19°C° 0.2 mm 6 mps 756 mmHg 87%
    22:00 +19°C° 0.2 mm 6 mps 756 mmHg 86%
    23:00 +19°C° 0.2 mm 6 mps 756 mmHg 86%
    Show more